Terug naar catalogus

STARLINK-11344

ActiefCommunicatieVLEO
NORAD 61688·PAYLOAD·🇺🇸 United States

Gelanceerd Oct 30, 2024 vanaf Vandenberg Space Force Base

Loading…

Volgende Passages (komende 24 uur)

TLE

VersSource: CelesTrak SupGP

Epoch: Sep 14, 2026, 21:30 UTC

1 61688C 24195B   26257.89631944 -.00000111  00000+0 -91201-6 0  2576
2 61688  53.1573 173.8354 0001161  98.3431  11.1369 15.69720683    12

Volg STARLINK-11344 in realtime met AllMySat

Download on the App Store